OpenBCM V1.08-5-g2f4a (Linux)

Packet Radio Mailbox

IZ3LSV

[San Dona' di P. JN]

 Login: GUEST





  
LU9DCE > KEPS     24.02.18 18:13l 261 Lines 13022 Bytes #999 (0) @ WW
BID : 32705_LU9DCE
Read: GUEST
Subj: SAT TLE OF 24
Path: IZ3LSV<IR2UBX<EA2RCF<LU9DCE
Sent: 180224/1601Z @:LU9DCE.TOR.BA.ARG.SOAM #:32705 [TORTUGUITAS] FBB7.07
From: LU9DCE@LU9DCE.TOR.BA.ARG.SOAM
To  : KEPS@WW


            __    _  _  ___  ____   ___  ____    ____  ____  ____
           (  )  / )( \/ _ \(    \ / __)(  __)  (  _ \(  _ \/ ___)
           / (_/\) \/ (\__  )) D (( (__  ) _)    ) _ ( ) _ (\___ \
           \____/\____/(___/(____/ \___)(____)  (____/(____/(____/
               ESTACION DE PACKET RADIO - BUENOS AIRES (GF05OM)
                   BOLETINES INFORMATIVOS PROGRAMADOS (BIP)
                    LU9DCE@GMX.COM - RF 147070 @ 1200 BAUD
                           telnet lu9dce.dynu.com
             BBS port 6300 / NODE port 3694 / DXCLUSTER port 9000

+------------------------------------------------------------------------------+
OSCAR 7
1 07530U 74089B   18055.50432925 -.00000018  00000-0  16915-3 0  9997
2 07530 101.6722  24.5821 0011949 192.0438 279.3220 12.53631340980470
OSCAR 11 (UoSAT 2)
1 14781U 84021B   18055.18637018  .00000040  00000-0  11128-4 0  9990
2 14781  97.6648  96.1306 0010017  93.7464 266.4896 14.82982347827691
OSCAR 19 (LUSAT)
1 20442U 90005G   18054.88036498 -.00000002 +00000-0 +15263-4 0  9994
2 20442 098.6007 354.1310 0012691 121.6947 238.5476 14.32887301467605
KITSAT B
1 22825U 93061C   18054.87194883 +.00000015 +00000-0 +23639-4 0  9997
2 22825 098.8493 029.0155 0007761 323.4176 036.6475 14.30022503273105
POSAT 1
1 22826U 93061D   18054.91497863 +.00000007 +00000-0 +20506-4 0  9998
2 22826 098.8434 029.1111 0008139 311.9539 048.0948 14.30353353273314
RADIO ROSTO
1 23439U 94085A   18054.83119453 -.00000048 +00000-0 -15453-3 0  9994
2 23439 064.8160 172.1634 0161068 202.2724 328.6176 11.27566518953780
JAS 2
1 24278U 96046B   18055.16874806 -.00000009 +00000-0 +25442-4 0  9998
2 24278 098.5280 269.4264 0351062 044.2662 318.5994 13.53081755062703
TECHSAT 1B
1 25397U 98043D   18054.87734595 -.00000011 +00000-0 +14433-4 0  9998
2 25397 098.6392 357.2580 0001580 034.3205 325.8076 14.23640248019382
ISS (ZARYA)
1 25544U 98067A   18055.22225694 +.00002216 +00000-0 +40685-4 0  9999
2 25544 051.6421 221.8672 0003192 127.1847 226.4087 15.54142456100944
PCSAT
1 26931U 01043C   18055.50983373 -.00000027  00000-0  21265-4 0  9996
2 26931  67.0518 160.1514 0005981 282.2182  77.8249 14.30494916856430
SAUDISAT 1C
1 27607U 02058C   18055.49412597  .00000002  00000-0  20920-4 0  9996
2 27607  64.5546  74.4883 0051837 355.2276   4.8324 14.75422113816334
CUTE-1
1 27844U 03031E   18054.96343835 +.00000056 +00000-0 +44988-4 0  9999
2 27844 098.6893 065.2780 0009413 345.6329 014.4580 14.22095923760065
CUBESAT XI 4
1 27848U 03031J   18055.52474128  .00000044  00000-0  39756-4 0  9990
2 27848  98.6981  66.1900 0009480 354.4840   5.6232 14.21702383760050
MOZHAYETS 4
1 27939U 03042A   18055.54289622  .00000073  00000-0  21632-4 0  9994
2 27939  97.9710 197.7100 0013875 141.6537 290.3621 14.66659678770309
CUBESAT XI 5
1 28895U 05043F   18054.85245617 +.00000140 +00000-0 +35597-4 0  9998
2 28895 097.8912 211.0079 0018041 069.7790 290.5351 14.63511608657291
CUTE-1.7+APD II
1 32785U 08021C   18055.48558102  .00000229  00000-0  30493-4 0  9994
2 32785  97.5527  73.0155 0014358  56.3589 303.8996 14.88066056532417
DELFI C3
1 32789U 08021G   18055.22016131 +.00001248 +00000-0 +90257-4 0  9997
2 32789 097.5278 112.8276 0011388 329.2853 030.7706 15.05771815534688
SEEDS
1 32791U 08021J   18055.01867564 +.00000328 +00000-0 +38961-4 0  9993
2 32791 097.5444 077.6603 0014307 040.7362 319.4923 14.90473267532579
YUBELEINY
1 32953U 08025A   18055.20020968 +.00000021 +00000-0 +75348-4 0  9997
2 32953 082.4991 082.9499 0020390 096.4892 263.8510 12.43081829442733
PRISM (HITOMI)
1 33493U 09002B   18055.34347632  .00001262  00000-0  11773-3 0  9997
2 33493  98.1417 313.0397 0015063 336.0702  23.9793 14.96093201493471
KKS-1 (KISEKI)
1 33499U 09002H   18055.52542867  .00000096  00000-0  22205-4 0  9997
2 33499  98.3496 233.6592 0008053 294.3845  65.6522 14.75296929488561
SWISSCUBE
1 35932U 09051B   18055.40081281  .00000133  00000-0  41103-4 0  9990
2 35932  98.5268 203.9619 0007605 188.1153 171.9922 14.56123639447025
BEESAT
1 35933U 09051C   18054.95524325 +.00000119 +00000-0 +37825-4 0  9991
2 35933 098.5308 204.9806 0005511 200.2730 159.8249 14.56231508446987
ITUPSAT 1
1 35935U 09051E   18055.28993660 +.00000105 +00000-0 +35310-4 0  9994
2 35935 098.5421 205.5773 0007908 197.0274 163.0659 14.55412926446877
XIWANG-1 (HOPE-1)
1 36122U 09072B   18055.22108190 -.00000017 +00000-0 +65470-4 0  9999
2 36122 100.0833 075.1081 0007658 018.6404 341.4989 13.16343528393685
TISAT 1
1 36799U 10035E   18055.41991261  .00000315  00000-0  38153-4 0  9998
2 36799  98.0881 188.7777 0011729 213.2749 146.7732 14.90701818413358
JUGNU
1 37839U 11058B   18055.19567390 +.00000317 +00000-0 +27161-4 0  9996
2 37839 019.9627 002.4069 0019094 081.6481 049.8728 14.12610080329261
SRMSAT
1 37841U 11058D   18055.26098631 +.00000315 +00000-0 +28272-4 0  9996
2 37841 019.9732 048.8823 0011717 331.1102 140.0251 14.10599068328826
M-CUBED/EXP-1 PRIME
1 37855U 11061F   18055.53373212  .00001829  00000-0  10121-3 0  9990
2 37855 101.7261  60.4128 0177728  55.5846 306.2024 15.04084051344718
HORYU 2
1 38340U 12025D   18055.09825900 +.00000170 +00000-0 +33139-4 0  9991
2 38340 098.3740 072.8934 0011062 205.2040 154.8629 14.75502543300023
STRAND 1
1 39090U 13009E   18055.22433084 +.00000002 +00000-0 +16174-4 0  9994
2 39090 098.5321 263.0028 0008095 273.5801 086.4458 14.35011942261600
SOMP
1 39134U 13015E   18055.28995590 +.00001260 +00000-0 +69527-4 0  9998
2 39134 064.8633 132.0228 0023529 226.0074 133.9114 15.18833853267374
BEESAT 3
1 39135U 13015F   18055.26080296 +.00000956 +00000-0 +58685-4 0  9999
2 39135 064.8698 144.0281 0029390 247.4951 112.3062 15.16413993267135
BEESAT 2
1 39136U 13015G   18055.25725242 +.00001210 +00000-0 +72505-4 0  9997
2 39136 064.8702 146.5230 0029784 247.8369 111.9595 15.15893350267085
CUBEBUG 1
1 39153U 13018D   18055.22793046  .00000174  00000-0  29796-4 0  9995
2 39153  97.9784 151.1551 0015916 315.3897  44.6034 14.80343784260870
ZACUBE
1 39417U 13066B   18055.13913254  .00000195  00000-0  30993-4 0  9990
2 39417  97.6005  89.7401 0059671 164.1016 196.2088 14.80879181230061
TRITON 1
1 39427U 13066M   18055.53411653  .00000149  00000-0  32173-4 0  9992
2 39427  97.6383  58.9530 0112708 260.1923  98.6542 14.67614452228056
GOMX 1
1 39430U 13066Q   18055.49163278  .00000251  00000-0  54893-4 0  9995
2 39430  97.6865  40.5576 0150912 326.8046  32.3755 14.59028662226723
HUMSAT D
1 39433U 13066T   18055.35551853  .00000354  00000-0  40241-4 0  9999
2 39433  97.6197 115.6018 0032573  98.3082 262.1833 14.91755355231607
50 SAT
1 39436U 13066W   18055.39190601  .00084579  00000-0  10179-2 0  9992
2 39436  97.7109 182.5332 0006414 249.5859 110.4708 15.60527652235630
CUBEBUG 2
1 39440U 13066AA  18055.51095460  .00000165  00000-0  30078-4 0  9999
2 39440  97.6090  77.4016 0080127 200.4561 159.3436 14.75615788229303
FUNCUBE 1
1 39444U 13066AE  18055.05886710 +.00000228 +00000-0 +34572-4 0  9991
2 39444 097.6017 091.0451 0058940 160.2117 200.1403 14.81644624228316
UWE-3
1 39446U 13066AG  18055.04977150 +.00000164 +00000-0 +28576-4 0  9997
2 39446 097.6035 082.9502 0070278 183.5232 176.5495 14.78148491227816
SPROUT
1 39770U 14029E   18055.52804045  .00000848  00000-0  10154-3 0  9993
2 39770  97.8726 157.5671 0008369 210.3323 149.7426 14.86680294203623
UNISAT 6
1 40012U 14033C   18055.23993375 +.00000142 +00000-0 +28885-4 0  9990
2 40012 097.8252 295.5859 0057885 201.8754 157.9983 14.73767385198062
DUCHIFAT 1
1 40021U 14033M   18055.25731723 +.00000452 +00000-0 +52495-4 0  9997
2 40021 097.9176 333.7740 0012657 184.8103 175.2995 14.90204848200135
QB50P1
1 40025U 14033R   18055.22662055 +.00000267 +00000-0 +34626-4 0  9999
2 40025 097.9086 330.8427 0012080 190.3711 169.7258 14.88641362199473
CHUBUSAT 1
1 40300U 14070C   18055.22853830  .00000632  00000-0  31179-4 0  9995
2 40300  97.3730 135.3044 0018791 301.8763 117.9247 15.21395924183107
NUDT-PHONESAT
1 40900U 15049B   18055.22121561 +.00002251 +00000-0 +10495-3 0  9993
2 40900 097.4435 064.8058 0015217 067.9575 292.3275 15.20818108134746
ZDPS 2A
1 40901U 15049C   18055.28236989 +.00000918 +00000-0 +49920-4 0  9995
2 40901 097.4599 063.4043 0015430 072.4979 287.7939 15.16868883134546
ZDPS 2B
1 40902U 15049D   18055.24106805 +.00000868 +00000-0 +47613-4 0  9996
2 40902 097.4489 061.5754 0015440 070.0878 290.2017 15.16675131134522
XW-2A
1 40903U 15049E   18055.46123775  .00001914  00000-0  49887-4 0  9994
2 40903  97.3981  89.1412 0016114  78.6399 281.6656 15.40034728136452
KAITUO 1A
1 40904U 15049F   18055.53268897  .00000692  00000-0  40572-4 0  9992
2 40904  97.4587  61.2347 0016530  70.1326  43.7930 15.14893655134445
OBJECT G
1 40905U 15049G   18055.19226271 +.00000428 +00000-0 +27185-4 0  9997
2 40905 097.4574 059.1659 0017349 064.5117 295.7907 15.13864771134324
XW-2C
1 40906U 15049H   18055.51598266  .00000692  00000-0  40440-4 0  9992
2 40906  97.4596  61.0891 0016599  63.4967 296.7966 15.15027382134435
XW-2D
1 40907U 15049J   18055.47922155  .00000738  00000-0  42731-4 0  9992
2 40907  97.4568  60.7647 0015947  61.8164 298.4677 15.15166132134432
LILACSAT 2
1 40908U 15049K   18055.22010266 +.00000422 +00000-0 +27182-4 0  9990
2 40908 097.4676 060.0117 0017569 062.9477 297.3545 15.13413470134282
XW-2F
1 40910U 15049M   18055.24959768 +.00001136 +00000-0 +61937-4 0  9993
2 40910 097.4576 061.6515 0016636 059.1095 301.1771 15.16277893134466
XW-2B
1 40911U 15049N   18055.22854444 +.00000729 +00000-0 +42336-4 0  9996
2 40911 097.4606 061.0123 0015866 063.1247 297.1604 15.15114459134295
